Location: New Plymouth
(39.0670°S, 174.0830°E)
Time: 03:06:45
(UTC+12:00)

ISS - Pass Details

Date: 25 June 2019
Orbit: 409 x 418 km, 51.6° (Epoch: 17 July)

Event Time Altitude Azimuth Distance (km) Brightness Sun altitude
Rises 19:46:47 0° 267° (W) 2,388 1.2 -29.7°
Reaches altitude 10° 19:49:23 10° 246° (WSW) 1,527 -0.2 -30.2°
Enters shadow 19:49:44 12° 241° (WSW) 1,433 -0.5 -30.3°
